Regional Weather Roundup
Issued by NWS Mt. Holly, NJ

Home | Current Version | Previous Version | Text Only | Print | Product List | Glossary On
Versions: 1 2 3 4 5 6 7 8 9 10 11 12 13 14 15 16 17 18 19 20 21 22 23 24 25 26 27 28 29 30 31 32 33 34 35 36 37 38 39 40 41 42 43 44 45 46 47 48 49 50
000
ASUS41 KPHI 111612
RWRPHI

REGIONAL WEATHER ROUNDUP
NATIONAL WEATHER SERVICE MOUNT HOLLY NJ
1100 AM EST MON DEC 11 2017

NOTE:  "FAIR" INDICATES FEW OR NO CLOUDS BELOW 12,000 FEET WITH NO
SIGNIFICANT WEATHER AND/OR OBSTRUCTIONS TO VISIBILITY.

 * = STATION DOES NOT REPORT PRECIPITATION (E.G. RAIN, SNOW, ETC.)
        OR FOG.

NJZ015>026-111700-
SOUTHERN NEW JERSEY

CITY           SKY/WX    TMP DP  RH WIND       PRES   REMARKS
POMONA         SUNNY     42  26  53 W13       30.07F
WILDWOOD*      SUNNY     41  28  60 W10       30.09F
MILLVILLE      SUNNY     42  26  53 NW12      30.08S
WRIGHTSTOWN    SUNNY     40  27  61 W10       30.03F WCI  33
MOUNT HOLLY    SUNNY     40  23  50 W9        30.08R WCI  34
TRENTON        SUNNY     39  21  48 NW10      30.05R WCI  32

$$
NJZ001>014-111700-
NORTHERN NEW JERSEY

CITY           SKY/WX    TMP DP  RH WIND       PRES   REMARKS
SUSSEX         SUNNY     36  21  54 VRB5      30.01S WCI  32
ANDOVER*         N/A     36  21  54 VRB7      30.02S WCI  30
MORRISTOWN     SUNNY     37  21  52 NW13G21   30.04S WCI  29
NEWARK         MOSUNNY   39  23  52 W12       30.04S WCI  32
TETERBORO      MOSUNNY   39  23  52 W9        30.03S WCI  33
CALDWELL       SUNNY     37  20  50 NW12      30.04R WCI  29
SOMERVILLE     SUNNY     38  23  55 W8        30.03S WCI  32
ALLAIRE*       SUNNY     38  25  59 W15       30.06S WCI  29
TOMS RIVER*    SUNNY     39  27  62 W14G21    30.06F WCI  31

$$
PAZ043-044-047-054-055-060>062-066>071-111700-
EASTERN PENNSYLVANIA

CITY           SKY/WX    TMP DP  RH WIND       PRES   REMARKS
PHILADELPHIA   MOSUNNY   41  22  46 W14       30.08S
NORTH PHILA    MOSUNNY   41  23  48 W14       30.08R
BLUE BELL*     PTSUNNY   37  23  56 W5        30.08R WCI  34
DOYLESTOWN     MOSUNNY   37  21  52 W9        30.05R WCI  30
QUAKERTOWN*    SUNNY     37  21  52 W6        30.05S WCI  33
PERKASIE*      FAIR      37  21  52 W9G21     30.05S WCI  31
POTTSTOWN      SUNNY     36  20  52 NW6       30.07S WCI  31
LANCASTER      SUNNY     38  25  59 W9        30.06S WCI  31
COATESVILLE    SUNNY     37  23  56 W9        30.06F WCI  31
READING        MOSUNNY   38  24  57 W8        30.05S WCI  32
ALLENTOWN      SUNNY     37  22  54 W12       30.04S WCI  29
MOUNT POCONO   MOSUNNY   29  19  66 NW15      29.94S WCI  18
HAZLETON       CLOUDY    34  23  64 W6        30.01S WCI  29
LEHIGHTON      FAIR      36  21  55 NW9       30.04S WCI  29
WILKES BARRE   MOSUNNY   35  22  58 W7        29.99F WCI  29

$$
DEZALL-MDZ008-012-015-019-020-111700-
DELAWARE AND EASTERN MARYLAND

CITY           SKY/WX    TMP DP  RH WIND       PRES   REMARKS
WILMINGTON     PTSUNNY   41  24  51 W8        30.09S
DOVER          MOSUNNY   41  30  64 W5        30.09S
GEORGETOWN     SUNNY     39  29  67 SW7       30.10F WCI  34
EASTON         SUNNY     45  28  53 CALM      30.13S
ABERDEEN       MOSUNNY   43  27  52 SW6       30.09F
PATUXENT       SUNNY     43  28  55 W7        30.11R
OCEAN CITY     SUNNY     42  29  59 NW5       30.11F
WALLOPS ISLAND SUNNY     45  30  55 CALM      30.12S
CAMBRIDGE      SUNNY     41  30  65 CALM      30.11S
SALISBURY      SUNNY     38  30  73 S6        30.10F WCI  33

$$
PAZ001-021-NYZ056-072-MDZ011-DCZ001-111700-
OTHER NEARBY LOCATIONS

CITY           SKY/WX    TMP DP  RH WIND       PRES   REMARKS
HARRISBURG     PTSUNNY   41  22  46 NW9       30.05F
STATE COLLEGE  CLOUDY    32  21  64 W6        30.01S WCI  26
WILLIAMSPORT   CLOUDY    36  24  62 W7        30.03S WCI  30
BINGHAMTON     CLOUDY    27  20  75 W12       29.94S WCI  17
NEW YORK CITY  SUNNY     37  22  54 W7        30.05S WCI  32
BALTIMORE      MOSUNNY   44  25  47 NW12      30.08F
WASHINGTON DC  SUNNY     43  31  62 SE5       30.10F

$$



USA.gov is the U.S. government's official web portal to all federal, state and local government web resources and services.